Terminal Aerodrome Forecast
Issued by NWS

Home | Current Version | Previous Version | Text Only | Print | Product List | Glossary On
Versions: 1 2 3 4 5 6 7 8 9 10 11 12 13 14 15 16 17 18 19 20 21 22 23 24 25 26 27 28 29 30 31 32 33 34 35 36 37 38 39 40 41 42
000
FTUS45 KBOU 031315 AAA
TAFBJC
TAF AMD
KBJC 031315Z 0313/0412 33006KT 1 1/2SM BR OVC003
      TEMPO 0313/0314 1/2SM FG OVC002
     FM031500 36007KT P6SM FEW080 SCT120 SCT200
     FM032200 07008KT P6SM SCT080 BKN140
      TEMPO 0323/0402 VRB20G32KT -TSRA BKN060CB
     FM040300 29007KT P6SM FEW080 SCT120
     FM040600 30005KT P6SM FEW120 SCT200=

USA.gov is the U.S. government's official web portal to all federal, state and local government web resources and services.